Flag for U.S.A. Weather past 2 weeks in Tucson, Arizona, U.S.A.

Now
71 °F

Clear.


Feels Like: 71 °F
Forecast: 74 / 84 °F
Wind: 18 mph from Southeast

Location: Davis-Monthan Air Force Base

Current Time: Sep 16, 2014 at 6:34:52 AM

Latest Report: Sep 16, 2014 at 5:58 AM


Visibility: 10 mi

Pressure: 29.89 "Hg

Humidity: 81%

Dew point: 65 °F

Location of TucsonLocation

Historic Weather in Tucson — Graph

°F

Tucson temperature yesterday

Maximum temperature yesterday: 97 °F (at 12:58 PM)
Minimum temperature yesterday: 77 °F (at 5:58 AM)
Average temperature yesterday: 85 °F

Past Weeks' High & Low Weather Summary

 TemperatureHumidityPressure
High101 °F (Sep 2, 3:58 PM)100% (Sep 8, 10:58 AM)30.03 "Hg (Sep 8, 10:58 AM)
Low67 °F (Sep 10, 5:58 AM)13% (Sep 2, 1:58 PM)29.58 "Hg (Sep 4, 12:55 AM)
Average82 °F49%29.81 "Hg
* Reported Sep 1 4:58 AM — Sep 16 4:58 AM, Tucson, Weather by CustomWeather, © 2014

Note: Actual official high and low records may vary slightly from our data, if they occured in-between our weather recording intervals... More about our weather records

Advertising

Tucson weather history for previous 24 hours

 ConditionsComfort  
Time TempWeatherWind HumidityBarometerVisibility
4:58 AM
Sep 16
75 °FClear.18 mph68%29.87 "Hg10 mi
3:58 AM75 °FClear.13 mph65%29.86 "Hg10 mi
2:58 AM75 °FClear.10 mph67%29.88 "Hg10 mi
1:58 AM79 °FClear.12 mph58%30.03 "Hg10 mi
12:58 AM79 °FPassing clouds.15 mph59%30.02 "Hg10 mi
12:03 AM77 °FHeavy rain. Passing clouds.14 mph74%30.01 "Hg6 mi
11:58 PM
Sep 15
81 °FRain. Partly cloudy.25 mph63%30.01 "Hg10 mi
10:58 PM80 °FPassing clouds.No wind59%30.00 "Hg10 mi
9:58 PM82 °FLight rain. Passing clouds.8 mph57%29.99 "Hg10 mi
8:58 PM83 °FPassing clouds.13 mph51%29.85 "Hg10 mi
7:58 PM83 °FClear.12 mph51%29.83 "Hg10 mi
6:58 PM84 °FClear.10 mph49%29.80 "Hg10 mi
5:58 PM87 °FSunny.10 mph43%29.78 "Hg10 mi
4:58 PM92 °FSunny.2 mph30%29.75 "Hg10 mi
3:58 PM94 °FSunny.8 mph28%29.76 "Hg10 mi
2:58 PM93 °FSunny.N/A29%29.75 "HgN/A
1:58 PM95 °FSunny.6 mph25%29.76 "Hg10 mi
12:58 PM97 °FSunny.2 mph23%29.78 "Hg10 mi
11:58 AM95 °FSunny.2 mph25%29.81 "Hg10 mi
10:58 AM93 °FSunny.3 mph28%29.82 "Hg10 mi
9:58 AM91 °FSunny.3 mph30%29.83 "Hg10 mi
8:58 AM85 °FSunny.9 mph41%29.85 "Hg10 mi
7:58 AM81 °FSunny.10 mph49%29.84 "Hg10 mi
6:58 AM77 °FSunny.10 mph52%29.83 "Hg10 mi
Weather by CustomWeather, © 2014

See weather overviewHow to use our weather pages